[[{"header":{"parameterUnit":"m.s-1","parameterCategory":1,"la1":30.2991,"la2":30.254,"lo1":-89.0895,"lo2":-89.0444,"dy":0.0017,"dx":0.0017,"nx":28,"ny":28,"refTime":"2024-09-26T03:00:00:Z","depth":0,"parameterNumber":2,"parameterNumberName":"U-component_of_WINDS"},"data":[0,0,0,0,0,0,0,0,0,0,0,0,0,0,0,0,0,0,0,0,0,0,0,0,0,0,0,0,0,0,0,0,0,0,0,0,0,0,0,0,0,0,0,0,0,0,0,0,0,0,0,0,0,0,0,0,0,0,0.4184,0.4184,0,0.4169,0.4169,0.4168,0.4165,0.4166,0.4166,0.4166,0.4148,0.4147,0.4146,0,0,0,0,0,0,0,0,0,0,0,0,0,0.4211,0.421,0.4184,0.4184,0.4184,0.4169,0.4169,0.4168,0.4165,0.4166,0.4166,0.4166,0.4148,0.4147,0.4146,0,0,0,0,0,0,0,0,0,0,0,0,0,0.4198,0.421,0.4184,0.4181,0.418,0.4169,0.4168,0.4168,0.4165,0.4166,0.4166,0.4166,0.4148,0.4147,0.4146,0.4137,0,0,0.4143,0.4143,0,0,0,0,0,0,0,0,0.4198,0.4197,0.4181,0.4181,0.418,0.4169,0.4171,0.4158,0.4165,0.4171,0.4166,0.4166,0.4155,0.4153,0.415,0.4136,0.4135,0.4143,0.4143,0.4142,0.4142,0,0,0,0,0,0,0,0.4199,0.4197,0.4178,0.4181,0.4181,0.418,0.4178,0.4169,0.4162,0.417,0.417,0.4169,0.4154,0.4151,0.4149,0.4135,0.4143,0.4143,0.4142,0.4142,0.4114,0.4113,0,0,0,0,0,0,0.4201,0.4198,0.4179,0.4178,0.419,0.4179,0.4177,0.4173,0.4162,0.416,0.4168,0.4168,0.4152,0.415,0.4149,0.4137,0.4142,0.4142,0.4141,0.4114,0.4114,0.4113,0,0,0,0,0,0,0.4202,0.4199,0.4179,0.4188,0.4185,0.4178,0.4173,0.4172,0.4168,0.416,0.4159,0.4166,0.4152,0.415,0.414,0.4137,0.4141,0.414,0.4114,0.4114,0.4113,0.4114,0,0,0,0,0,0,0.4202,0.4199,0.4196,0.4188,0.4185,0.4171,0.4173,0.4172,0.4167,0.4167,0.4158,0.4156,0.4152,0.4141,0.4139,0.4135,0.414,0.4114,0.4114,0.4114,0.4114,0.4114,0.4114,0,0,0,0,0,0.4203,0.4196,0.4196,0.4193,0.418,0.4171,0.4169,0.4165,0.4167,0.4163,0.4158,0.4156,0.4138,0.4141,0.4138,0.4134,0.4114,0.4114,0.4114,0.4115,0.4114,0.4114,0,0,0,0,0,0,0.4203,0.4195,0.4194,0.4184,0.4179,0.4171,0.4166,0.4165,0.4158,0.4158,0.4153,0.415,0.4141,0.4136,0.414,0.4125,0.4126,0.4125,0.4128,0.4127,0.4127,0.4128,0.4139,0,0,0,0,0,0.4202,0.4195,0.4189,0.418,0.4178,0.4172,0.4168,0.4166,0.4159,0.4156,0.4151,0.4144,0.4137,0.4132,0.4124,0.4114,0.4112,0.411,0.411,0.4109,0.4108,0.4104,0.4103,0.4112,0.4112,0.4112,0,0,0.4199,0.4194,0.419,0.418,0.4175,0.4169,0.417,0.4163,0.4158,0.4155,0.4146,0.4142,0.4134,0.4124,0.4119,0.412,0.4106,0.4109,0.4109,0.4108,0.4103,0.4102,0.4101,0.4112,0.4112,0.4112,0,0,0.419,0.4186,0.4179,0.4175,0.4168,0.4165,0.4163,0.4156,0.4153,0.4144,0.4142,0.4136,0.4124,0.4118,0.4114,0.4106,0.4104,0.4104,0.4101,0.4096,0.4096,0.4095,0.4092,0.4092,0.4103,0.4103,0.4103,0,0.4187,0.4178,0.4175,0.4169,0.4165,0.4163,0.4156,0.4152,0.4143,0.414,0.4141,0.4126,0.4121,0.411,0.4109,0.4105,0.4103,0.4104,0.4096,0.4095,0.4095,0.4092,0.4091,0.4103,0.4103,0.4103,0.4103,0,0.4175,0.4169,0.4164,0.4156,0.4152,0.4145,0.4141,0.4137,0.4136,0.4132,0.4124,0.4118,0.411,0.4107,0.4105,0.4097,0.4097,0.4097,0.4099,0.4094,0.4091,0.409,0.4103,0.4103,0.4103,0.4103,0,0,0.4164,0.4157,0.4155,0.4152,0.4146,0.414,0.4134,0.4127,0.4124,0.4118,0.4112,0.4103,0.4103,0.4099,0.4096,0.4092,0.4087,0.4093,0.4092,0.4092,0.4078,0.4078,0.4077,0.4086,0.4086,0.4086,0.4079,0,0.4155,0.4144,0.4142,0.4132,0.4127,0.4126,0.4121,0.4116,0.4113,0.4108,0.4105,0.4098,0.4099,0.4096,0.4092,0.4088,0.4084,0.4089,0.4081,0.408,0.4082,0.4075,0.4075,0.4068,0.4077,0.4077,0.4077,0,0.4142,0.4138,0.4127,0.4123,0.4121,0.4116,0.411,0.4105,0.41,0.4098,0.4094,0.4092,0.4086,0.4088,0.4079,0.4083,0.408,0.4077,0.4077,0.4076,0.4078,0.4074,0.4066,0.4065,0.4076,0.4076,0.4076,0,0.4136,0.4127,0.412,0.4117,0.4112,0.4109,0.4106,0.4101,0.4098,0.4093,0.4091,0.4085,0.4081,0.4077,0.4074,0.4076,0.4065,0.4067,0.4063,0.4064,0.4061,0.4061,0.4052,0.4059,0.4059,0.4059,0.4059,0,0.4125,0.4119,0.4117,0.4113,0.4106,0.4105,0.4098,0.4095,0.4092,0.4087,0.4086,0.4082,0.4078,0.4073,0.4071,0.4064,0.4062,0.4061,0.406,0.4061,0.4061,0.4058,0.4058,0.4059,0.4059,0.4059,0.4059,0,0.4116,0.4115,0.4107,0.4103,0.4102,0.4098,0.4094,0.409,0.4088,0.4082,0.4081,0.4077,0.4072,0.4069,0.4061,0.406,0.4052,0.4052,0.4054,0.4054,0.405,0.4051,0.4039,0.4038,0.4046,0.4046,0.4046,0,0.411,0.4105,0.4101,0.4099,0.4096,0.4092,0.4089,0.4087,0.4084,0.4079,0.4076,0.407,0.4066,0.4057,0.4053,0.4048,0.4047,0.4044,0.4046,0.4048,0.4047,0.4048,0.4047,0.4043,0.4043,0.4043,0.4043,0,0.4098,0.4098,0.4094,0.409,0.4087,0.4083,0.408,0.4077,0.4075,0.4072,0.4067,0.4063,0.4057,0.4051,0.4046,0.4043,0.4043,0.4042,0.4041,0.4042,0.4043,0.4042,0.4053,0.4042,0.4042,0.4042,0.4043,0.4043,0.409,0.4086,0.4084,0.4079,0.4077,0.4074,0.4071,0.4069,0.4065,0.406,0.4059,0.4054,0.405,0.4044,0.4041,0.4036,0.4037,0.4035,0.4035,0.4034,0.4035,0.4044,0.4035,0.4035,0.4035,0.4035,0.4035,0,0.4078,0.4077,0.4073,0.4069,0.4066,0.4068,0.4064,0.4061,0.4057,0.4054,0.405,0.4045,0.404,0.4037,0.4033,0.403,0.4029,0.4029,0.4028,0.4028,0.4034,0.4036,0.4029,0.4029,0.4029,0.4029,0.4029,0.4029,0.4072,0.4066,0.4066,0.406,0.4058,0.4054,0.4052,0.405,0.4047,0.4042,0.4038,0.4037,0.4034,0.4029,0.4025,0.4025,0.4023,0.4022,0.4021,0.4027,0.4027,0.4028,0.4029,0.4022,0.4022,0.4016,0.4016,0.4015]},{"header":{"parameterUnit":"m.s-1","parameterCategory":1,"la1":30.2991,"la2":30.254,"lo1":-89.0895,"lo2":-89.0444,"dy":0.0017,"dx":0.0017,"nx":28,"ny":28,"refTime":"2024-09-26T03:00:00:Z","depth":0,"parameterNumber":3,"parameterNumberName":"V-component_of_WINDS"},"data":[0,0,0,0,0,0,0,0,0,0,0,0,0,0,0,0,0,0,0,0,0,0,0,0,0,0,0,0,0,0,0,0,0,0,0,0,0,0,0,0,0,0,0,0,0,0,0,0,0,0,0,0,0,0,0,0,0,0,-8.9667,-8.9668,0,-8.9768,-8.9769,-8.977,-8.9706,-8.9703,-8.97,-8.9697,-8.9794,-8.9799,-8.9804,0,0,0,0,0,0,0,0,0,0,0,0,0,-8.9412,-8.9417,-8.9667,-8.9668,-8.9669,-8.9768,-8.9769,-8.9771,-8.9707,-8.9703,-8.9699,-8.9696,-8.9792,-8.9798,-8.9805,0,0,0,0,0,0,0,0,0,0,0,0,0,-8.9519,-8.9418,-8.9666,-8.9649,-8.9649,-8.9768,-8.9769,-8.9771,-8.9707,-8.9703,-8.9699,-8.9694,-8.979,-8.9798,-8.9806,-8.9945,0,0,-8.983,-8.9834,0,0,0,0,0,0,0,0,-8.9513,-8.9528,-8.9651,-8.9651,-8.965,-8.972,-8.9715,-8.9829,-8.9709,-8.9685,-8.9697,-8.9692,-8.9772,-8.9782,-8.981,-8.9949,-8.9953,-8.9831,-8.9836,-8.9839,-8.9841,0,0,0,0,0,0,0,-8.9505,-8.9523,-8.9706,-8.9652,-8.9652,-8.9635,-8.9645,-8.9736,-8.9752,-8.9687,-8.9682,-8.9696,-8.9771,-8.9803,-8.9812,-8.9955,-8.9831,-8.9838,-8.9843,-8.9846,-9.0214,-9.0219,0,0,0,0,0,0,-8.95,-8.9517,-8.9703,-8.9709,-8.9569,-8.9643,-8.9654,-8.9702,-8.9751,-8.9754,-8.9699,-8.9692,-8.9791,-8.9803,-8.9815,-8.9982,-8.9839,-8.9847,-8.9851,-9.0209,-9.0215,-9.0221,0,0,0,0,0,0,-8.9495,-8.9517,-8.9699,-8.9613,-8.9634,-8.9652,-8.9706,-8.9706,-8.9738,-8.9761,-8.9763,-8.9729,-8.9788,-8.9804,-8.9914,-8.9985,-8.985,-8.9857,-9.0203,-9.0211,-9.0218,-9.0317,0,0,0,0,0,0,-8.9488,-8.9516,-8.957,-8.9614,-8.9639,-8.9798,-8.9711,-8.9712,-8.9753,-8.9744,-8.9789,-8.9792,-8.9786,-8.9902,-8.9922,-8.9993,-8.9864,-9.0197,-9.0207,-9.0216,-9.0308,-9.0327,-9.0344,0,0,0,0,0,-8.9479,-8.9592,-8.9573,-8.9596,-8.9708,-8.9802,-8.9816,-8.9809,-8.9759,-8.9812,-8.9828,-8.979,-8.9974,-8.9914,-8.9935,-9.0011,-9.0193,-9.0204,-9.0215,-9.03,-9.0324,-9.0344,0,0,0,0,0,0,-8.9552,-8.9597,-8.9577,-8.9708,-8.9752,-8.9791,-8.9859,-8.9834,-8.9892,-8.9881,-8.9868,-8.9878,-8.9994,-9.0013,-8.9945,-9.0148,-9.0075,-9.0091,-9.0132,-9.0155,-9.0173,-9.0166,-8.987,0,0,0,0,0,-8.9584,-8.9659,-8.9693,-8.9805,-8.9829,-8.9841,-8.9882,-8.9873,-8.9917,-8.9935,-8.9958,-9.0,-9.0068,-9.0112,-9.0175,-9.031,-9.0319,-9.0373,-9.0391,-9.0405,-9.0419,-9.0494,-9.0518,-9.0258,-9.0258,-9.0257,0,0,-8.9649,-8.9683,-8.9731,-8.9821,-8.9855,-8.9932,-8.9857,-8.994,-8.9997,-8.9946,-9.0053,-9.0072,-9.0118,-9.0242,-9.0298,-9.0261,-9.0494,-9.042,-9.0431,-9.0437,-9.0508,-9.0532,-9.0554,-9.0265,-9.0264,-9.0263,0,0,-8.9808,-8.9841,-8.9939,-8.9976,-9.0029,-9.0036,-9.006,-9.0104,-9.0115,-9.0223,-9.0187,-9.0253,-9.0369,-9.0404,-9.0437,-9.0613,-9.0581,-9.0634,-9.0728,-9.0801,-9.0821,-9.084,-9.0903,-9.0926,-9.0648,-9.0648,-9.0648,0,-8.9881,-8.9999,-8.9992,-9.0081,-9.0121,-9.0083,-9.0182,-9.0216,-9.0285,-9.0314,-9.0273,-9.042,-9.0448,-9.0581,-9.0624,-9.0652,-9.0678,-9.0629,-9.0819,-9.0838,-9.0854,-9.0915,-9.0939,-9.0654,-9.0653,-9.0653,-9.0652,0,-9.0087,-9.0169,-9.0242,-9.0314,-9.0363,-9.0456,-9.0462,-9.0512,-9.05,-9.0511,-9.0622,-9.0655,-9.0725,-9.0756,-9.0742,-9.0887,-9.0863,-9.0821,-9.0747,-9.0886,-9.0942,-9.0965,-9.0663,-9.0661,-9.0659,-9.0657,0,0,-9.0293,-9.0364,-9.039,-9.0424,-9.0481,-9.0543,-9.0634,-9.0706,-9.075,-9.0799,-9.0875,-9.0976,-9.0938,-9.0976,-9.0967,-9.1031,-9.1169,-9.0981,-9.0982,-9.1015,-9.1332,-9.1364,-9.139,-9.1149,-9.1153,-9.1157,-9.1328,0,-9.0456,-9.0619,-9.0617,-9.0767,-9.0842,-9.0808,-9.0887,-9.093,-9.0944,-9.1008,-9.1022,-9.1094,-9.1039,-9.1062,-9.1124,-9.114,-9.1233,-9.1127,-9.1218,-9.1222,-9.1209,-9.142,-9.1453,-9.1613,-9.135,-9.1354,-9.1356,0,-9.0668,-9.0729,-9.0888,-9.0936,-9.0968,-9.104,-9.1107,-9.1169,-9.1217,-9.1222,-9.1267,-9.1248,-9.1339,-9.1264,-9.1389,-9.1318,-9.1355,-9.1369,-9.1374,-9.1383,-9.1298,-9.1434,-9.1664,-9.1688,-9.1391,-9.1388,-9.1386,0,-9.0803,-9.0925,-9.1036,-9.1066,-9.1125,-9.1176,-9.1203,-9.1246,-9.1291,-9.1348,-9.1377,-9.1443,-9.1479,-9.1531,-9.153,-9.1475,-9.1658,-9.1581,-9.1664,-9.1664,-9.1704,-9.1701,-9.1943,-9.1727,-9.1727,-9.1727,-9.1726,0,-9.0986,-9.1085,-9.1099,-9.1167,-9.1277,-9.1273,-9.1381,-9.1402,-9.1442,-9.1512,-9.1485,-9.1552,-9.1547,-9.1614,-9.1614,-9.1719,-9.1735,-9.1741,-9.174,-9.1744,-9.1744,-9.1768,-9.1757,-9.1733,-9.1731,-9.173,-9.1729,0,-9.1156,-9.1169,-9.1289,-9.1336,-9.1351,-9.1429,-9.1469,-9.1533,-9.1545,-9.1636,-9.1656,-9.1675,-9.1753,-9.1758,-9.1846,-9.1846,-9.1974,-9.196,-9.1959,-9.1957,-9.204,-9.2032,-9.2306,-9.2342,-9.2102,-9.2105,-9.2106,0,-9.1272,-9.1347,-9.1405,-9.1452,-9.1483,-9.1558,-9.1605,-9.1604,-9.1653,-9.1715,-9.1772,-9.1848,-9.1909,-9.2034,-9.2054,-9.2122,-9.211,-9.2202,-9.212,-9.2122,-9.2113,-9.2108,-9.2116,-9.2217,-9.222,-9.2222,-9.2224,0,-9.1476,-9.148,-9.1549,-9.1623,-9.1679,-9.1735,-9.1788,-9.1827,-9.1833,-9.1889,-9.197,-9.2018,-9.2111,-9.2186,-9.2254,-9.2278,-9.2252,-9.225,-9.2273,-9.2278,-9.2275,-9.2279,-9.2003,-9.2243,-9.2241,-9.224,-9.2239,-9.2238,-9.1623,-9.169,-9.1742,-9.182,-9.1861,-9.1911,-9.1975,-9.1997,-9.2066,-9.2144,-9.2139,-9.2229,-9.2275,-9.2364,-9.2394,-9.2463,-9.2432,-9.2465,-9.2473,-9.2481,-9.2491,-9.2264,-9.2475,-9.2474,-9.2474,-9.2474,-9.2473,0,-9.1828,-9.186,-9.1933,-9.2009,-9.2071,-9.2045,-9.2102,-9.2155,-9.2236,-9.2283,-9.2345,-9.2439,-9.2513,-9.254,-9.2612,-9.2662,-9.2652,-9.2681,-9.2677,-9.2683,-9.2514,-9.2488,-9.2688,-9.2688,-9.2688,-9.2688,-9.2688,-9.2688,-9.1941,-9.2054,-9.2064,-9.2196,-9.2227,-9.2318,-9.2353,-9.2399,-9.2437,-9.2545,-9.2608,-9.2626,-9.2665,-9.274,-9.2807,-9.2812,-9.284,-9.2874,-9.2875,-9.2717,-9.2695,-9.2674,-9.265,-9.288,-9.2881,-9.3039,-9.304,-9.3041]}]]